Regional Weather Roundup
Issued by NWS Memphis, TN

Home | Current Version | Previous Version | Text Only | Print | Product List | Glossary On
Versions: 1 2 3 4 5 6 7 8 9 10 11 12 13 14 15 16 17 18 19 20 21 22 23 24 25 26 27 28 29 30 31 32 33 34 35 36 37 38 39 40 41 42 43 44 45 46 47 48 49 50
000
ASUS44 KMEG 270710
RWRMEG
MEMPHIS CWA HOURLY WEATHER ROUNDUP
NATIONAL WEATHER SERVICE MEMPHIS TN
200 AM CDT FRI MAY 27 2016

...WEST TENNESSEE...

CITY           SKY/WX    TMP DP  RH WIND       PRES   REMARKS
MEMPHIS INTL   CLOUDY    70  66  87 E5        29.91F
NWS MEMPHIS      N/A     67 N/A N/A MISG        N/A
JACKSON        CLOUDY    68  65  90 SE6       29.95S
LEXINGTON      CLEAR     64  64 100 CALM      29.96F
DYERSBURG      CLOUDY    66  64  94 E5        29.94S
UNION CITY     PTCLDY    66  66 100 CALM      29.94F
PARIS          PTCLDY    64  64 100 CALM      29.98R


...EASTERN ARKANSAS...

CITY           SKY/WX    TMP DP  RH WIND       PRES   REMARKS
JONESBORO      LGT RAIN  69  67  93 E5        29.91S
WEST MEMPHIS   CLOUDY    69  66  90 SE6       29.90
BATESVILLE     CLOUDY    70  66  88 E9        29.89F
NEWPORT        LGT RAIN  69  69 100 E10       29.90F
WALNUT RIDGE   CLOUDY    68  64  88 S9        29.92R THUNDER
BLYTHEVILLE    CLOUDY    69  68  96 E3        29.92F
SEARCY         LGT RAIN  70  70 100 E3        29.89S
STUTTGART      CLOUDY    75  68  78 S10       29.88S
PINE BLUFF     CLOUDY    74  71  91 S8        29.87F
MONTICELLO     CLOUDY    76  71  85 S6        29.89S


...NORTH MISSISSIPPI...

CITY           SKY/WX    TMP DP  RH WIND       PRES   REMARKS
TUPELO         CLOUDY    74  60  61 SE10      29.95F
OXFORD         CLOUDY    73  63  68 S7        29.96S
BATESVILLE     CLOUDY    76  66  71 S6        29.93R
OLIVE BRANCH   PTCLDY    66  66 100 CALM      29.93S
TUNICA         CLOUDY    72  70  94 S3        29.92R
CLARKSDALE     CLOUDY    77  73  88 S8        29.92R
CORINTH        CLOUDY    68  63  83 E3        29.95F
GREENWOOD      CLOUDY    75  67  76 S13       29.93R
COLUMBUS       PTCLDY    68  63  82 SE6       29.97S
STARKVILLE     CLOUDY    70  64  83 S3        29.97R
GOLDEN TRIANGL CLOUDY    72  63  73 SE7       29.97S


...SOUTHEAST MISSOURI...

CITY           SKY/WX    TMP DP  RH WIND       PRES   REMARKS
KENNETT        LGT RAIN  70  68  94 SE12G23   29.88F
WEST PLAINS    CLOUDY    67  64  90 SE14G20   29.90F
POPLAR BLUFF   LGT RAIN  67  65  93 SE6       29.92F
CAPE GIRARDEAU LGT RAIN  67  64  90 CALM      29.93F


...NORTHWEST ALABAMA...

CITY           SKY/WX    TMP DP  RH WIND       PRES   REMARKS
MUSCLE SHOALS  CLOUDY    71  60  68 SE5       30.00S


...MIDDLE TENNESSEE...

CITY           SKY/WX    TMP DP  RH WIND       PRES   REMARKS
NASHVILLE      MOCLDY    68  62  81 CALM      30.00F
CLARKSVILLE    MOCLDY    65  64  97 CALM      30.00R FOG
COLUMBIA       CLEAR    N/A N/A N/A CALM      29.99S


...WESTERN KENTUCKY...

CITY           SKY/WX    TMP DP  RH WIND       PRES   REMARKS
PADUCAH        LGT RAIN  68  63  84 W3        29.94F
FORT CAMPBELL  CLOUDY    67  65  95 SW3       30.00R


...CENTRAL ARKANSAS...

CITY           SKY/WX    TMP DP  RH WIND       PRES   REMARKS
LITTLE ROCK    CLOUDY    72  69  90 SE5       29.86F


SKY/WX REPORTED AS FAIR MEANS FEW OR NO CLOUDS BELOW
12 THOUSAND FEET.





USA.gov is the U.S. government's official web portal to all federal, state and local government web resources and services.